Regional Weather Roundup
Issued by NWS Jackson, KY

Home | Current Version | Previous Version | Text Only | Print | Product List | Glossary Off
Versions: 1 2 3 4 5 6 7 8 9 10 11 12 13 14 15 16 17 18 19 20 21 22 23 24 25 26 27 28 29 30 31 32 33 34 35 36 37 38 39 40 41 42 43 44 45 46 47 48 49 50

000
ASUS43 KJKL 211411
RWRJKL

EAST KENTUCKY HOURLY WEATHER ROUNDUP
NATIONAL WEATHER SERVICE JACKSON KY
1000 AM EDT THU AUG 21 2014

NOTE: "FAIR" INDICATES FEW OR NO CLOUDS BELOW 12,000 FEET WITH
NO SIGNIFICANT WEATHER AND/OR OBSTRUCTIONS TO VISIBILITY.

* THESE REPORTS ARE NOT UNDER NWS QUALITY CONTROL AND MAY NOT
  REPORT WEATHER SUCH AS PRECIPITATION AND FOG.

KYZ079-080-083-085-087-088-110-112-115-119-120-211500
...EASTERN KENTUCKY...

CITY           SKY/WX    TMP DP  RH WIND       PRES   REMARKS
JACKSON        MOSUNNY   72  66  81 SE3       30.14S
LONDON         MOSUNNY   76  67  73 S6        30.15R
SOMERSET*      MOSUNNY   72  70  94 CALM      30.15R
MONTICELLO*    MOSUNNY   80  72  76 SW8       30.15R
WILLIAMSBURG*  SUNNY     73  72  94 CALM      30.15S
MIDDLESBORO*   CLOUDY    69  66  92 CALM      30.18S
HARLAN APT*    CLOUDY    66  64  94 MISG      30.18S
HAZARD APT*    CLOUDY    73  70  88 CALM      30.15S
BLACK MTN*       N/A     70  66  88 E1          N/A
PIKEVILLE APT* CLOUDY    70  66  88 S3        30.16S
BIG SANDY*     PTSUNNY   73  67  82 S3        30.15S
MOREHEAD APT*  CLOUDY    75  68  78 VRB5G12   30.13S
$$

KYZ035-036-041-042-044-050-067-078-099-211500
...CENTRAL KENTUCKY...

CITY           SKY/WX    TMP DP  RH WIND       PRES   REMARKS
MT STERLING*   MOSUNNY   73  70  88 SW7       30.13R
FLEMING/MASON* SUNNY     73  68  83 S5        30.10F
DANVILLE*      PTSUNNY   73  70  88 S6        30.13R
RICHMOND*      PTSUNNY   77  68  73 SW8       30.12R
LEXINGTON      PTSUNNY   76  68  76 SW7       30.11R
FRANKFORT      PTSUNNY   75  69  81 SW7       30.08S
$$

KYZ091>093-OHZ055-061-077-WVZ005-015-034-035-042-211500
...SOUTHERN OHIO/WEST VIRGINIA...

CITY           SKY/WX    TMP DP  RH WIND       PRES   REMARKS
COVINGTON      LGT RAIN  72  69  90 S3        30.07S
COLUMBUS       CLOUDY    72  67  84 VRB5      30.04F
DAYTON         CLOUDY    73  69  87 SW8       30.07R
WILMINGTON     PTSUNNY   73  69  87 SW14      30.06S
HUNTINGTON     PTSUNNY   71  68  90 S5        30.11S
CHARLESTON     PTSUNNY   75  68  78 SW8       30.12S
PINEVILLE*     MOSUNNY   75  69  82 MISG      30.23S
BECKLEY        SUNNY     72  64  76 SW8       30.21R
BLUEFIELD      MOSUNNY   73  63  70 W12       30.24R
$$

VAZ002-007-008-TNZ017-027-036-066-071-211500
...SOUTHWEST VIRGINIA/EAST TENNESSEE...

CITY           SKY/WX    TMP DP  RH WIND       PRES   REMARKS
WISE*          PTSUNNY   72  68  88 SW3       30.23F
JONESVILLE*      N/A     68  66  94 CALM      30.21S
ABINGDON*      MOSUNNY   72  66  82 SW3       30.23R
BRISTOL        PTSUNNY   69  64  84 CALM      30.21R
OAK RIDGE      CLOUDY    68  67  96 CALM      30.18F
CROSSVILLE     SUNNY     77  69  76 W7        30.21R
NASHVILLE      MOSUNNY   79  73  82 VRB3      30.13R
$$

...KEY TO REMARKS...
VSB - VISIBILITY IN MILES
WCI - WIND CHILL INDEX
HX  - HEAT INDEX

$$



USA.gov is the U.S. government's official web portal to all federal, state and local government web resources and services.